Location: Agendoh
(31.0664°N, 8.9343°W)
Time: 07:02:29
(UTC+00:00)

ATLAS 3B R/B - Pass Details

Date: 06 December 2021
Orbit: 994 x 1201 km, 63.8° (Epoch: 11 January)

Event Time Altitude Azimuth Distance (km) Brightness Sun altitude
Rises 05:48:53 0° 204° (SSW) 3,693 5.4 -19.1°
Reaches altitude 10° 05:51:25 10° 203° (SSW) 2,752 4.8 -18.6°
Maximum altitude 05:57:52 82° 118° (ESE) 1,026 2.7 -17.3°
Drops below altitude 10° 06:04:34 10° 31° (NNE) 2,855 5.1 -15.9°
Sets 06:07:14 0° 30° (NNE) 3,839 5.8 -15.4°
